Location: Mentone
(34.5413°N, 85.5351°W)
Time: 09:45:41
(UTC-05:00)

Tiros 1 despin weight - All Passes

Search period start: 28 August 2015 00:00
Search period end: 07 September 2015 00:00
Orbit: 597 x 647 km, 48.2° (Epoch: 25 August)

Date Brightness Start Highest point End Pass type
(mag) Time Alt. Az. Time Alt. Az. Time Alt. Az.
28 Aug - 08:49:12 10° SW 08:53:36 61° SE 08:57:58 10° ENE daylight
28 Aug - 10:31:38 10° W 10:35:29 27° NNW 10:39:17 10° NE daylight
28 Aug - 12:15:55 10° NW 12:18:16 14° N 12:20:37 10° NNE daylight
28 Aug - 13:58:08 10° NNW 14:01:15 19° NNE 14:04:25 10° ENE daylight
28 Aug - 15:39:09 10° NW 15:43:34 62° NE 15:48:01 10° ESE daylight
28 Aug - 17:21:36 10° W 17:24:56 20° SW 17:28:11 10° S daylight
29 Aug - 07:27:00 10° S 07:30:06 19° SE 07:33:16 10° E daylight
29 Aug - 09:06:59 10° WSW 09:11:25 65° NW 09:15:50 10° NE daylight
29 Aug - 10:50:31 10° WNW 10:53:43 19° NNW 10:56:52 10° NNE daylight
29 Aug - 12:34:21 10° NNW 12:36:41 14° N 12:39:02 10° NE daylight
29 Aug - 14:15:43 10° NW 14:19:29 27° NNE 14:23:18 10° E daylight
29 Aug - 15:56:59 10° WNW 16:01:24 65° SW 16:05:50 10° SE daylight
30 Aug - 07:43:32 10° SSW 07:47:44 41° SE 07:51:56 10° ENE daylight
30 Aug - 09:25:18 10° W 09:29:25 35° NNW 09:33:30 10° NE daylight
30 Aug - 11:09:29 10° NW 11:12:04 15° N 11:14:36 10° NNE daylight
30 Aug - 12:52:17 10° NNW 12:55:04 16° NNE 12:57:54 10° NE daylight
30 Aug - 14:33:19 10° NW 14:37:34 44° NNE 14:41:52 10° ESE daylight
30 Aug - 16:15:13 10° WNW 16:19:06 29° SW 16:22:59 10° SSE daylight
31 Aug - 06:22:29 10° SSE 06:24:16 12° SE 06:26:16 10° ESE daylight
31 Aug - 08:01:00 10° SW 08:05:29 89° SE 08:09:57 10° NE daylight
31 Aug - 09:44:01 10° WNW 09:47:34 22° NNW 09:51:04 10° NNE daylight
31 Aug - 11:28:12 10° NNW 11:30:29 14° N 11:32:44 10° NNE daylight
31 Aug - 13:09:56 10° NNW 13:13:23 22° NNE 13:16:52 10° ENE daylight
31 Aug - 14:51:03 10° NW 14:55:30 87° NE 14:59:58 10° SE daylight
31 Aug - 16:34:30 10° W 16:36:43 13° SW 16:38:45 10° SSW daylight
01 Sep - 06:38:04 10° SSW 06:41:54 28° SE 06:45:44 10° ENE daylight
01 Sep - 08:19:04 10° WSW 08:23:24 47° NNW 08:27:41 10° NE daylight
01 Sep - 10:02:59 10° NW 10:05:52 17° NNW 10:08:42 10° NNE daylight
01 Sep - 11:46:22 10° NNW 11:48:52 15° N 11:51:25 10° NE daylight
01 Sep - 13:27:31 10° NW 13:31:32 34° NNE 13:35:37 10° E daylight
01 Sep - 15:09:02 10° WNW 15:13:16 43° SW 15:17:29 10° SSE daylight
02 Sep - 06:55:08 10° SW 06:59:35 61° SE 07:03:59 10° ENE daylight
02 Sep - 08:37:35 10° W 08:41:27 28° NNW 08:45:17 10° NE daylight
02 Sep - 10:21:52 10° NW 10:24:15 14° N 10:26:36 10° NNE daylight
02 Sep - 12:04:07 10° NNW 12:07:14 18° NNE 12:10:22 10° ENE daylight
02 Sep - 13:45:09 10° NW 13:49:33 61° NE 13:53:57 10° ESE daylight
02 Sep - 15:27:37 10° W 15:30:54 20° SW 15:34:06 10° S daylight
03 Sep - 05:32:55 10° S 05:36:03 19° SE 05:39:17 10° E visible
03 Sep - 07:12:55 10° WSW 07:17:24 65° NW 07:21:50 10° NE daylight
03 Sep - 08:56:27 10° WNW 08:59:41 19° NNW 09:02:52 10° NNE daylight
03 Sep - 10:40:19 10° NNW 10:42:39 14° N 10:45:00 10° NE daylight
03 Sep - 12:21:42 10° NW 12:25:28 26° NNE 12:29:15 10° E daylight
03 Sep - 14:02:59 10° WNW 14:07:22 65° SW 14:11:46 10° SE daylight
04 Sep - 05:49:26 10° SSW 05:53:41 41° SE 05:57:56 10° ENE visible
04 Sep - 07:31:14 10° W 07:35:23 35° NNW 07:39:29 10° NE daylight
04 Sep - 09:15:24 10° NW 09:18:01 15° N 09:20:36 10° NNE daylight
04 Sep - 10:58:15 10° NNW 11:01:02 16° NNE 11:03:51 10° NE daylight
04 Sep - 12:39:18 10° NW 12:43:33 44° NNE 12:47:49 10° ESE daylight
04 Sep - 14:21:12 10° WNW 14:25:04 29° SW 14:28:54 10° SSE daylight
05 Sep - 04:28:20 10° SSE 04:30:13 13° SE 04:32:17 10° ESE visible
05 Sep - 06:06:53 10° SW 06:11:26 88° SE 06:15:56 10° NE daylight
05 Sep - 07:49:57 10° WNW 07:53:32 23° NNW 07:57:04 10° NNE daylight
05 Sep - 09:34:08 10° NNW 09:36:25 14° N 09:38:43 10° NNE daylight
05 Sep - 11:15:54 10° NNW 11:19:20 22° NNE 11:22:49 10° ENE daylight
05 Sep - 12:57:00 10° NW 13:01:27 87° NE 13:05:54 10° SE daylight
05 Sep - 14:40:30 10° W 14:42:40 13° SW 14:44:39 10° SSW daylight
06 Sep - 04:43:57 10° SSW 04:47:49 28° SE 04:51:43 10° ENE visible
06 Sep - 06:24:57 10° WSW 06:29:20 47° NNW 06:33:40 10° NE daylight
06 Sep - 08:08:52 10° NW 08:11:48 17° NNW 08:14:41 10° NNE daylight
06 Sep - 09:52:18 10° NNW 09:54:49 15° N 09:57:22 10° NE daylight
06 Sep - 11:33:28 10° NW 11:37:30 33° NNE 11:41:32 10° E daylight
06 Sep - 13:14:59 10° WNW 13:19:12 43° SW 13:23:24 10° SSE daylight
